Change the Weather History Date:

Wednesday, September 26, 2012

  Actual Average Record
Temperature  
Mean Temperature 54 °F -  
Max Temperature 61 °F 66 °F 97 °F (1958)
Min Temperature 46 °F 51 °F 40 °F (1931)
Degree Days  
Heating Degree Days 12    
Growing Degree Days 4 (Base 50)    
Moisture  
Dew Point 50 °F    
Average Humidity 97    
Maximum Humidity 100    
Minimum Humidity 72    
Precipitation  
Precipitation 0.00 in - - ()
Sea Level Pressure  
Sea Level Pressure 29.93 in    
Wind  
Wind Speed 2 mph (South)    
Max Wind Speed 7 mph    
Max Gust Speed -    
Visibility 4 miles    
Events Fog    
Averages and records for this station are not official NWS values.
T = Trace of Precipitation, MM = Missing Value Source: NWS Daily Summary

Daily Weather History Graph

Daily Weather History Graph

Search for Another Location

Airport or City:

Trip Planner

Search our weather history database for the weather conditions in past years. The results will help you decide how hot, cold, wet, or windy it might be!

Date:

Astronomy

Sep. 26, 2012 Rise Set
Actual Time 7:09 AM PDT 7:06 PM PDT
Civil Twilight 6:41 AM PDT 7:34 PM PDT
Nautical Twilight 6:08 AM PDT 8:06 PM PDT
Astronomical Twilight 5:35 AM PDT 8:39 PM PDT
Moon 5:11 PM PDT (9/26) 3:38 AM PDT (9/26)
Length of Visible Light 12h 52m
Length of Day
11h 56m
Waxing Gibbous, 88% of the Moon is Illuminated
Sep 26
Waxing Gibbous
Sep 29
Full
Oct 8
Last Quarter
Oct 15
New
Oct 21
First Quarter

Hourly Weather History & Observations

Time (PDT) Temp. Dew Point Humidity Pressure Visibility Wind Dir Wind Speed Gust Speed Precip Events Conditions
12:56 AM 50.0 °F 50.0 °F 100% 29.98 in 6.0 mi ESE 3.5 mph - N/A   Clear
1:56 AM 47.8 °F 47.8 °F 100% 29.97 in 6.0 mi Calm Calm - N/A   Clear
2:56 AM 47.8 °F 47.8 °F 100% 29.96 in 6.0 mi Calm Calm - N/A   Clear
3:56 AM 46.9 °F 46.9 °F 100% 29.95 in 6.0 mi NNE 3.5 mph - N/A   Clear
5:56 AM 46.9 °F 46.9 °F 100% 29.94 in 6.0 mi Calm Calm - N/A   Mostly Cloudy
6:16 AM 46.4 °F 46.4 °F 100% 29.93 in 1.5 mi Calm Calm - N/A   Overcast
6:19 AM 46.4 °F 46.4 °F 100% 29.93 in 1.0 mi Calm Calm - N/A   Overcast
6:23 AM 46.4 °F 46.4 °F 100% 29.93 in 0.5 mi Calm Calm - N/A Fog Fog
6:36 AM 48.2 °F 48.2 °F 100% 29.94 in 0.2 mi Calm Calm - N/A Fog Fog
6:56 AM 48.9 °F 48.9 °F 100% 29.94 in 0.2 mi Calm Calm - 0.00 in Fog Fog
7:09 AM 48.2 °F 48.2 °F 100% 29.94 in 0.2 mi Calm Calm - N/A Fog Fog
7:56 AM 47.8 °F 47.8 °F 100% 29.95 in 0.2 mi Calm Calm - N/A Fog Fog
8:56 AM 48.9 °F 48.9 °F 100% 29.96 in 0.2 mi Calm Calm - N/A Fog Fog
9:15 AM 48.2 °F 48.2 °F 100% 29.95 in 0.8 mi Calm Calm - N/A   Overcast
9:23 AM 50.0 °F 50.0 °F 100% 29.95 in 1.0 mi NW 3.5 mph - N/A   Overcast
9:27 AM 50.0 °F 50.0 °F 100% 29.95 in 0.5 mi WNW 3.5 mph - N/A Fog Fog
9:35 AM 50.0 °F 50.0 °F 100% 29.95 in 0.2 mi West 3.5 mph - N/A Fog Fog
9:56 AM 50.9 °F 50.9 °F 100% 29.96 in 0.2 mi Calm Calm - N/A Fog Fog
10:00 AM 51.8 °F 51.8 °F 100% 29.95 in 0.8 mi Calm Calm - N/A   Overcast
10:08 AM 51.8 °F 51.8 °F 100% 29.95 in 1.2 mi Calm Calm - N/A   Overcast
10:15 AM 53.6 °F 53.6 °F 100% 29.95 in 2.0 mi Calm Calm - N/A   Overcast
10:24 AM 53.6 °F 53.6 °F 100% 29.95 in 5.0 mi South 3.5 mph - N/A   Mostly Cloudy
10:34 AM 55.4 °F 55.4 °F 100% 29.95 in 6.0 mi SSW 3.5 mph - N/A   Scattered Clouds
11:56 AM 56.8 °F 52.9 °F 87% 29.94 in 9.0 mi WSW 4.6 mph - N/A   Clear
12:56 PM 57.9 °F 52.0 °F 81% 29.93 in 10.0 mi West 3.5 mph - N/A   Clear
1:56 PM 57.9 °F 50.9 °F 77% 29.92 in 10.0 mi WSW 5.8 mph - N/A   Clear
2:56 PM 59.0 °F 50.9 °F 74% 29.91 in 10.0 mi SSE 5.8 mph - N/A   Clear
3:56 PM 61.0 °F 52.0 °F 72% 29.91 in 10.0 mi Variable 4.6 mph - N/A   Clear
5:56 PM 57.9 °F 50.9 °F 77% 29.89 in 9.0 mi South 6.9 mph - N/A   Clear
7:35 PM 51.8 °F 51.8 °F 100% 29.89 in 6.0 mi SSE 6.9 mph - N/A   Scattered Clouds
7:45 PM 51.8 °F 51.8 °F 100% 29.90 in 5.0 mi SE 3.5 mph - N/A   Mostly Cloudy
7:56 PM 52.0 °F 52.0 °F 100% 29.91 in 5.0 mi SE 3.5 mph - N/A   Overcast
8:06 PM 51.8 °F 51.8 °F 100% 29.90 in 4.0 mi SSE 6.9 mph - N/A   Overcast
8:48 PM 51.8 °F 51.8 °F 100% 29.91 in 2.5 mi SE 3.5 mph - N/A   Overcast
8:56 PM 50.9 °F 50.9 °F 100% 29.92 in 2.0 mi SE 4.6 mph - N/A   Overcast
9:21 PM 51.8 °F 51.8 °F 100% 29.92 in 1.2 mi South 3.5 mph - N/A   Overcast
9:23 PM 51.8 °F 51.8 °F 100% 29.92 in 0.8 mi SSE 4.6 mph - N/A   Overcast
9:31 PM 51.8 °F 51.8 °F 100% 29.92 in 0.2 mi Calm Calm - N/A Fog Fog
9:56 PM 50.9 °F 50.9 °F 100% 29.94 in 0.5 mi Calm Calm - N/A Fog Fog
10:08 PM 51.8 °F 51.8 °F 100% 29.93 in 0.2 mi Calm Calm - N/A Fog Fog
10:31 PM 50.0 °F 50.0 °F 100% 29.93 in 0.2 mi Calm Calm - N/A Fog Fog
10:41 PM 48.2 °F 48.2 °F 100% 29.93 in 0.8 mi Calm Calm - N/A   Mostly Cloudy
10:43 PM 48.2 °F 48.2 °F 100% 29.93 in 1.8 mi Calm Calm - N/A   Mostly Cloudy
10:47 PM 48.2 °F 48.2 °F 100% 29.93 in 10.0 mi Calm Calm - N/A   Scattered Clouds
10:56 PM 48.9 °F 48.9 °F 100% 29.94 in 10.0 mi Calm Calm - N/A   Partly Cloudy
11:56 PM 50.0 °F 50.0 °F 100% 29.94 in 0.5 mi NNW 4.6 mph - N/A Fog Fog